Home   Weather   Schwäbisch Gmünd   Past weeks

Flag for Germany Past Weather in Schwäbisch Gmünd, Baden-Württemberg, Germany — Yesterday and Last 2 Weeks

46 °F

Partly sunny.

Feels Like: 44 °F
Forecast: 36 / 51 °F
Wind: 5 mph from Northwest

Location: Stuttgart-Echterdingen

Current Time: Oct 21, 2016 at 1:21:33 PM

Latest Report: Oct 21, 2016 at 12:50 PM

Visibility: N/A

Pressure: 29.98 "Hg

Humidity: 76%

Dew Point: 39 °F

Location of Schwäbisch GmündLocation

Past Weather in Schwäbisch Gmünd — Graph


Schwäbisch Gmünd Temperature Yesterday

Maximum temperature yesterday: 52 °F (at 1:20 PM)
Minimum temperature yesterday: 45 °F (at 3:20 AM)
Average temperature yesterday: 47 °F

High & Low Weather Summary for the Past Weeks

High68 °F (Oct 16, 3:50 PM)100% (Oct 7, 3:20 AM)30.24 "Hg (Oct 7, 3:20 AM)
Low36 °F (Oct 10, 3:50 AM)47% (Oct 12, 3:50 PM)29.65 "Hg (Oct 14, 5:50 PM)
Average48 °F84%30.05 "Hg
* Reported Oct 6 12:20 PM — Oct 21 12:20 PM, Schwäbisch Gmünd, Weather by CustomWeather, © 2016

Note: Actual official high and low records may vary slightly from our data, if they occured in-between our weather recording intervals... More about our weather records


Schwäbisch Gmünd Weather History for the Previous 24 Hours

Scroll right to see more
Time TempWeatherWind HumidityBarometerVisibility
12:20 PM
Fri, Oct 21
46 °FPartly sunny.3 mph76%29.98 "HgN/A
11:50 AM45 °FBroken clouds.5 mph81%29.98 "HgN/A
11:20 AM45 °FBroken clouds.3 mph81%29.98 "HgN/A
10:50 AM45 °FBroken clouds.6 mph81%29.98 "HgN/A
10:20 AM43 °FBroken clouds.5 mph93%29.95 "HgN/A
9:50 AM43 °FBroken clouds.7 mph87%29.95 "HgN/A
9:20 AM43 °FBroken clouds.6 mph87%29.95 "HgN/A
8:50 AM41 °FPartly sunny.6 mph93%29.95 "HgN/A
8:20 AM41 °FBroken clouds.2 mph93%29.95 "HgN/A
7:50 AM41 °FPassing clouds.3 mph93%29.92 "HgN/A
7:20 AM41 °FPassing clouds.3 mph93%29.92 "HgN/A
6:50 AM41 °FPartly cloudy.6 mph93%29.92 "HgN/A
6:20 AM41 °FPartly cloudy.5 mph93%29.92 "HgN/A
5:50 AM41 °FPassing clouds.6 mph93%29.92 "HgN/A
5:20 AM41 °FPartly cloudy.7 mph93%29.92 "HgN/A
4:50 AM43 °FPartly cloudy.9 mph87%29.92 "HgN/A
4:20 AM43 °FPartly cloudy.8 mph87%29.92 "HgN/A
3:50 AM43 °FPartly cloudy.7 mph93%29.92 "HgN/A
3:20 AM43 °FPassing clouds.7 mph93%29.92 "HgN/A
2:50 AM43 °FLight rain. Mostly cloudy.10 mph93%29.92 "HgN/A
2:20 AM45 °FLight rain. Partly cloudy.8 mph93%29.92 "HgN/A
1:50 AM45 °FRain. Partly cloudy.8 mph93%29.89 "Hg5 mi
1:20 AM46 °FRain. Passing clouds.7 mph82%29.89 "HgN/A
12:50 AM46 °FLight rain. Partly cloudy.10 mph82%29.89 "HgN/A
12:20 AM46 °FPartly cloudy.8 mph82%29.89 "HgN/A
11:50 PM
Thu, Oct 20
46 °FPassing clouds.9 mph82%29.89 "HgN/A
11:20 PM46 °FPassing clouds.7 mph82%29.89 "HgN/A
10:50 PM46 °FPassing clouds.8 mph82%29.89 "HgN/A
10:20 PM46 °FPassing clouds.8 mph82%29.89 "HgN/A
9:50 PM46 °FPassing clouds.6 mph82%29.89 "HgN/A
9:20 PM46 °FPassing clouds.7 mph82%29.89 "HgN/A
8:50 PM46 °FPartly cloudy.8 mph82%29.89 "HgN/A
8:20 PM46 °FPartly cloudy.8 mph87%29.92 "HgN/A
7:50 PM48 °FPartly cloudy.8 mph82%29.92 "HgN/A
7:20 PM48 °FPartly cloudy.8 mph82%29.92 "HgN/A
6:50 PM48 °FPartly cloudy.9 mph82%29.92 "HgN/A
6:20 PM48 °FPartly sunny.8 mph82%29.92 "HgN/A
5:50 PM48 °FPartly sunny.9 mph76%29.92 "HgN/A
5:20 PM50 °FBroken clouds.8 mph71%29.92 "HgN/A
4:50 PM50 °FBroken clouds.10 mph76%29.92 "HgN/A
4:20 PM50 °FBroken clouds.10 mph76%29.92 "HgN/A
3:50 PM52 °FBroken clouds.13 mph67%29.92 "HgN/A
3:20 PM50 °FBroken clouds.13 mph71%29.92 "HgN/A
2:50 PM50 °FPartly sunny.14 mph71%29.92 "HgN/A
2:20 PM50 °FBroken clouds.18 mph71%29.92 "HgN/A
1:50 PM52 °FBroken clouds.10 mph72%29.92 "HgN/A
1:20 PM52 °FScattered showers. Broken clouds.13 mph72%29.92 "HgN/A
Weather by CustomWeather, © 2016

See weather overviewHow to use our weather pages